F2092 Weather Reports


Display with metric or nautical units.
time (UTC)temp
F
wind
direction
speed
MPH
gust
MPH
rain 1hr
in
rain 24hr
in
rain mn
in
humidity
%
barometer
mb
20260510224503 63 245 0.0 1.0 0.00 0.00 0.00 92 1013.7
20260510223814 63 249 0.0 2.0 0.00 0.00 0.00 91 1013.7
20260510222703 64 257 0.0 1.0 0.00 0.02 0.00 90 1013.7
20260510222013 64 184 0.0 2.0 0.00 0.04 0.00 89 1013.6
20260510220903 64 220 1.0 4.0 0.00 0.09 0.00 87 1013.9
20260510220003 65 234 1.0 3.0 0.00 0.13 0.00 86 1014.0
20260510215615 65 240 1.0 3.0 0.00 0.13 0.00 85 1013.6
20260510214503 66 235 1.0 5.0 0.00 0.13 0.00 85 1013.4
20260510213603 66 230 1.0 3.0 0.00 0.13 0.00 83 1013.4
20260510212917 67 232 1.0 4.0 0.00 0.13 0.00 83 1013.3
20260510211803 68 212 1.0 5.0 0.00 0.13 0.00 81 1013.1
20260510211116 69 101 0.0 2.0 0.00 0.13 0.00 81 1013.0
20260510210214 70 215 1.0 5.0 0.00 0.13 0.00 79 1013.2
20260510205403 71 191 1.0 5.0 0.00 0.13 0.00 77 1013.1
20260510204503 72 205 1.0 4.0 0.00 0.13 0.00 77 1013.2
20260510203815 72 211 0.0 4.0 0.00 0.13 0.00 78 1013.1
20260510202703 70 74 0.0 2.0 0.00 0.13 0.00 80 1013.1
20260510201803 72 119 1.0 4.0 0.00 0.13 0.00 78 1013.2
20260510200903 71 171 2.0 8.0 0.00 0.13 0.00 78 1013.3
20260510200003 75 162 1.0 5.0 0.00 0.13 0.00 73 1013.2
20260510195403 76 218 1.0 5.0 0.00 0.13 0.00 75 1013.2
20260510194503 74 138 1.0 6.0 0.00 0.13 0.00 77 1013.0
20260510193603 73 177 1.0 4.0 0.00 0.13 0.00 77 1013.2
20260510192703 72 223 1.0 6.0 0.00 0.13 0.00 79 1013.2
20260510191803 71 154 1.0 5.0 0.00 0.13 0.00 81 1013.3
20260510190903 72 131 1.0 5.0 0.00 0.13 0.00 79 1013.2
20260510190003 73 86 1.0 3.0 0.00 0.13 0.00 79 1013.3
20260510185403 74 73 1.0 3.0 0.00 0.13 0.00 78 1013.2
20260510184503 72 68 3.0 6.0 0.00 0.13 0.00 79 1013.3
20260510183603 71 74 3.0 8.0 0.00 0.13 0.00 83 1013.5
20260510182703 72 76 2.0 6.0 0.00 0.13 0.00 81 1013.5
20260510181803 71 77 2.0 6.0 0.00 0.13 0.00 83 1013.4
20260510180903 70 72 2.0 6.0 0.00 0.13 0.00 85 1013.4
20260510180003 69 73 2.0 7.0 0.00 0.13 0.00 87 1013.3
20260510175403 69 76 2.0 6.0 0.00 0.13 0.00 87 1013.3
20260510174503 68 78 2.0 5.0 0.00 0.13 0.00 86 1013.4
20260510173817 66 77 3.0 6.0 0.00 0.13 0.00 88 1013.5
20260510172914 66 77 3.0 6.0 0.00 0.13 0.00 87 1013.6
20260510171803 66 65 2.0 6.0 0.00 0.13 0.00 89 1013.6
20260510171114 66 68 2.0 6.0 0.00 0.16 0.00 88 1013.4
20260510170003 65 76 3.0 8.0 0.00 0.18 0.00 91 1013.5
20260510165403 65 77 3.0 8.0 0.00 0.18 0.00 92 1013.7
20260510164503 65 80 2.0 7.0 0.00 0.18 0.00 91 1013.7
20260510163603 64 77 3.0 5.0 0.00 0.20 0.00 92 1013.6
20260510162703 64 84 2.0 6.0 0.00 0.20 0.00 92 1013.6
20260510161803 64 84 2.0 5.0 0.00 0.20 0.00 93 1013.7
20260510160903 64 73 2.0 6.0 0.00 0.20 0.00 92 1014.0
20260510160003 62 74 2.0 7.0 0.00 0.20 0.00 94 1014.0
20260510155403 62 82 3.0 8.0 0.00 0.20 0.00 95 1014.0
20260510154503 60 81 4.0 8.0 0.00 0.20 0.00 95 1014.1
20260510153813 61 80 3.0 8.0 0.00 0.20 0.00 98 1014.0
20260510152703 61 83 2.0 7.0 0.00 0.20 0.00 95 1013.9
20260510151803 62 85 1.0 4.0 0.00 0.20 0.00 98 1013.9
20260510150903 62 250 1.0 3.0 0.00 0.20 0.00 98 1014.0
20260510150003 61 230 1.0 4.0 0.00 0.20 0.00 100 1014.0
20260510145403 60 210 0.0 3.0 0.00 0.20 0.00 100 1013.9
20260510144503 59 226 0.0 2.0 0.00 0.20 0.00 100 1014.0
20260510143603 59 232 0.0 2.0 0.00 0.20 0.00 100 1014.0
20260510142703 58 248 0.0 1.0 0.00 0.20 0.00 100 1014.0
20260510141803 58 221 0.0 2.0 0.00 0.20 0.00 100 1013.9
20260510141116 57 235 0.0 1.0 0.00 0.20 0.00 100 1013.8
20260510140003 56 195 0.0 2.0 0.00 0.20 0.00 100 1013.7
20260510135403 56 233 0.0 2.0 0.00 0.20 0.00 100 1013.7
20260510134503 56 236 0.0 2.0 0.00 0.20 0.00 100 1013.8
20260510133603 55 239 1.0 3.0 0.00 0.20 0.00 100 1013.7
20260510132703 55 245 0.0 3.0 0.00 0.20 0.00 100 1013.5
20260510132014 56 120 0.0 1.0 0.00 0.20 0.00 100 1013.5
20260510130903 55 81 0.0 1.0 0.00 0.20 0.00 100 1013.4
20260510130003 54 81 1.0 2.0 0.00 0.20 0.00 100 1013.5
20260510125403 55 91 0.0 2.0 0.00 0.20 0.00 100 1013.4
20260510124503 55 81 0.0 1.0 0.00 0.20 0.00 100 1013.4
20260510123603 54 81 0.0 1.0 0.00 0.20 0.00 100 1013.2
20260510122703 54 124 0.0 1.0 0.00 0.20 0.00 100 1013.2
20260510121803 54 212 0.0 1.0 0.00 0.20 0.00 100 1013.0
20260510120903 54 126 0.0 1.0 0.00 0.20 0.00 100 1012.9
20260510120003 53 74 0.0 2.0 0.00 0.20 0.00 100 1012.9
20260510115616 53 73 0.0 2.0 0.00 0.20 0.00 100 1012.8
20260510114503 53 71 0.0 1.0 0.00 0.20 0.00 100 1013.0
20260510113816 53 80 0.0 3.0 0.00 0.20 0.00 100 1012.8
20260510112703 53 69 1.0 4.0 0.00 0.20 0.00 100 1012.6
20260510111803 53 64 0.0 3.0 0.00 0.20 0.00 100 1012.5
20260510110903 53 83 0.0 3.0 0.00 0.20 0.00 100 1012.4
20260510110003 53 90 0.0 2.0 0.00 0.20 0.00 100 1012.3
20260510105403 53 90 0.0 2.0 0.00 0.20 0.00 100 1012.4
20260510104503 53 0 0.0 0.0 0.00 0.20 0.00 100 1012.8
20260510103603 53 0 0.0 0.0 0.00 0.20 0.00 100 1012.5
20260510102703 52 0 0.0 0.0 0.00 0.20 0.00 100 1012.3
20260510101803 52 0 0.0 0.0 0.00 0.20 0.00 100 1012.2
20260510100903 52 0 0.0 0.0 0.00 0.20 0.00 100 1012.5
20260510100003 52 94 0.0 1.0 0.00 0.20 0.00 100 1012.3
20260510095612 51 89 0.0 1.0 0.00 0.20 0.00 100 1012.4
20260510094503 51 87 0.0 2.0 0.00 0.20 0.00 100 1012.4
20260510093603 51 88 2.0 7.0 0.00 0.20 0.00 100 1012.2
20260510092703 51 76 1.0 4.0 0.00 0.20 0.00 100 1012.2
20260510092017 51 78 1.0 3.0 0.00 0.20 0.00 100 1012.2
20260510091114 51 78 1.0 3.0 0.00 0.20 0.00 100 1011.9
20260510090003 51 78 0.0 2.0 0.00 0.20 0.00 100 1011.8
20260510085403 51 76 0.0 2.0 0.00 0.20 0.00 100 1011.8
20260510084503 51 75 0.0 1.0 0.00 0.20 0.00 100 1012.0
20260510083813 50 83 0.0 1.0 0.00 0.20 0.00 100 1012.0
20260510082703 51 87 0.0 2.0 0.00 0.20 0.00 100 1011.9
20260510081803 50 86 0.0 2.0 0.00 0.20 0.00 100 1012.0
20260510080903 50 88 0.0 2.0 0.00 0.20 0.00 100 1011.9
20260510080003 51 87 1.0 3.0 0.00 0.20 0.00 100 1012.0
20260510075403 51 85 0.0 3.0 0.00 0.20 0.00 100 1012.0
20260510074716 51 91 1.0 3.0 0.00 0.20 0.00 100 1011.8
20260510073603 50 104 0.0 2.0 0.00 0.20 0.00 100 1011.7
20260510072703 50 87 0.0 4.0 0.00 0.20 0.00 100 1011.5
20260510071803 50 83 0.0 2.0 0.00 0.20 0.00 100 1011.4
20260510071115 50 83 0.0 2.0 0.00 0.20 0.00 100 1011.2
20260510070003 49 83 0.0 1.0 0.00 0.20 0.00 100 1011.0
20260510065403 49 83 0.0 1.0 0.00 0.20 0.00 100 1011.0
20260510064503 48 0 0.0 0.0 0.00 0.20 0.00 100 1011.0
20260510063603 48 0 0.0 0.0 0.00 0.20 0.00 100 1011.2
20260510062703 47 0 0.0 0.0 0.00 0.20 0.00 100 1011.2
20260510061803 46 0 0.0 0.0 0.00 0.20 0.00 100 1011.2
20260510060903 47 0 0.0 0.0 0.00 0.20 0.00 100 1011.3
20260510060003 47 0 0.0 0.0 0.00 0.20 0.00 100 1011.3
20260510055615 47 0 0.0 0.0 0.00 0.20 0.00 100 1011.2
20260510054712 47 0 0.0 0.0 0.00 0.20 0.00 100 1011.4
20260510053814 47 0 0.0 0.0 0.00 0.20 0.00 100 1011.4
20260510052708 48 0 0.0 0.0 0.00 0.20 0.00 100 1011.4
20260510051803 48 0 0.0 0.0 0.00 0.20 0.00 100 1011.6
20260510050903 48 0 0.0 0.0 0.00 0.20 0.00 100 1011.5
20260510050003 48 0 0.0 0.0 0.00 0.20 0.00 100 1011.5
20260510045403 48 0 0.0 0.0 0.00 0.20 0.00 100 1011.5
20260510044503 48 0 0.0 0.0 0.00 0.20 0.00 100 1011.5
20260510043603 48 0 0.0 0.0 0.00 0.20 0.00 100 1011.5
20260510042703 48 0 0.0 0.0 0.00 0.20 0.00 100 1011.6
20260510041803 48 0 0.0 0.0 0.00 0.20 0.00 100 1011.7
20260510040903 49 0 0.0 0.0 0.00 0.20 0.00 100 1011.7
20260510040003 49 83 0.0 1.0 0.00 0.20 0.00 100 1011.6
20260510035403 49 83 0.0 1.0 0.00 0.20 0.20 100 1011.4
20260510034503 49 0 0.0 0.0 0.00 0.20 0.20 100 1011.3
20260510033603 49 0 0.0 0.0 0.00 0.20 0.20 100 1011.4
20260510032703 49 0 0.0 0.0 0.00 0.20 0.20 100 1011.3
20260510031803 50 0 0.0 0.0 0.00 0.20 0.20 100 1011.5
20260510030903 50 0 0.0 0.0 0.00 0.20 0.20 100 1011.2
20260510030003 50 83 0.0 1.0 0.00 0.20 0.20 100 1011.2
20260510025617 50 83 0.0 1.0 0.00 0.20 0.20 100 1011.1
20260510024714 50 0 0.0 0.0 0.00 0.20 0.20 100 1011.2
20260510023603 50 0 0.0 0.0 0.00 0.20 0.20 100 1011.1
20260510022703 50 0 0.0 0.0 0.00 0.20 0.20 100 1011.2
20260510022016 50 0 0.0 0.0 0.00 0.20 0.20 100 1011.4
20260510020903 51 0 0.0 0.0 0.00 0.20 0.20 100 1011.3
20260510020003 51 0 0.0 0.0 0.00 0.20 0.20 100 1011.5
20260510015403 51 0 0.0 0.0 0.00 0.20 0.20 100 1011.5
20260510014503 51 0 0.0 0.0 0.00 0.20 0.20 100 1011.5
20260510013603 51 0 0.0 0.0 0.00 0.20 0.20 100 1011.3
20260510012914 51 0 0.0 0.0 0.00 0.20 0.20 100 1011.1
20260510011803 52 0 0.0 0.0 0.00 0.20 0.20 100 1011.3
20260510011114 52 0 0.0 0.0 0.00 0.20 0.20 100 1011.2
20260510010003 52 0 0.0 0.0 0.00 0.20 0.20 100 1011.1
20260510005403 52 0 0.0 0.0 0.00 0.20 0.20 100 1010.9
20260510004503 53 0 0.0 0.0 0.00 0.20 0.20 100 1011.1
20260510003603 53 0 0.0 0.0 0.00 0.20 0.20 100 1010.9
20260510002703 54 0 0.0 0.0 0.00 0.20 0.20 100 1010.9
20260510001803 54 0 0.0 0.0 0.00 0.20 0.20 99 1011.0
20260510001114 54 0 0.0 0.0 0.00 0.20 0.20 99 1010.9
20260510000003 55 0 0.0 0.0 0.00 0.20 0.20 99 1010.7
20260509235403 55 0 0.0 0.0 0.00 0.20 0.20 99 1010.7
20260509234503 56 0 0.0 0.0 0.00 0.20 0.20 98 1010.6
20260509233603 56 0 0.0 0.0 0.00 0.20 0.20 98 1010.4
20260509232703 56 83 0.0 1.0 0.02 0.20 0.20 98 1010.4
20260509231803 56 85 0.0 4.0 0.04 0.20 0.20 98 1010.4
20260509230903 56 100 0.0 1.0 0.09 0.20 0.20 98 1010.6
20260509230003 57 104 0.0 2.0 0.13 0.20 0.20 97 1010.7